Погода в Межегее

Россия / Республика Тыва     51°15′20″N   94°19′21″E
темп.,
°C
ветер,
м/с
пор.,
м/с
влажн.,
%
обл.,
%
осадки,
мм/ч
давл.,
гПа
погр.,
м
9 декабря, чт
чт901:00−13ссв0096100 1.1 103441
04:00−13сз0196100 0.6 103359
07:00−12з1196100 1.4 103447
10:00−10зсз1294100 0.5 1034102
13:00−9ссз2394100 0.9 1036255
16:00−12зсз129995 0.4 104087
19:00−17ююз229681 0.4 104511
22:00−19ююз229569 0.0 104711
10 декабря, пт
пт1001:00−21ююз219457 0.0 104910
04:00−22ююз119387 0.0 105010
07:00−22ююз119425 0.0 10529
10:00−21всв0093100 0.0 105210
13:00−19ссв1196100 0.0 105081
16:00−20сз0010091 0.0 10509
19:00−22ююз1196100 0.0 10529
22:00−22ююз119898 0.0 10529
11 декабря, сб
сб1101:00−23ююз119664 0.0 10539
04:00−25ююз11975 0.0 10549
07:00−25ююз119831 0.0 10559
10:00−24с0110037 0.0 105611
13:00−22ссв2110076 0.0 105480
16:00−24сз0010077 0.0 10539
19:00−24юз1110078 0.0 10529
22:00−24ююз11100100 0.0 105110
12 декабря, вс
вс1201:00−24ююз00100100 0.0 104810
04:00−24юз1010099 0.0 104610
07:00−24ю0010097 0.0 104410
10:00−24зюз0010076 0.0 104312
13:00−22ссв219977 0.0 103971
16:00−24юз1110077 0.0 103810
19:00−24ююз11100100 0.0 10369
22:00−25ююз11100100 0.0 10359
13 декабря, пн
пн1301:00−22ссз00100100 0.0 103439
04:00−21ссз00100100 0.0 103332
07:00−19сз0094100 0.0 103346
10:00−19св1110082 0.1 103339
13:00−18ссв1110097 0.2 103397
16:00−21ююв0010067 0.0 10349
19:00−21ю0010083 0.0 10359
22:00−23ю1010099 0.0 10359